Regional Weather Roundup
Issued by NWS

Home | Current Version | Previous Version | Text Only | Print | Product List | Glossary On
Versions: 1 2 3 4 5 6 7 8 9 10 11 12 13 14 15 16 17 18 19 20 21 22 23 24 25 26 27 28 29 30 31 32 33 34 35 36 37 38 39 40 41 42 43 44 45 46 47 48 49 50
000
ASUS43 KDMX 231807
RWRIA

WEATHER ROUNDUP FOR IOWA
NATIONAL WEATHER SERVICE DES MOINES IA
1200 PM CST SUN NOV 23 2014

NOTE: "FAIR" INDICATES FEW OR NO CLOUDS BELOW 12,000 FEET WITH NO
SIGNIFICANT WEATHER AND/OR OBSTRUCTIONS TO VISIBILITY.

* - THESE STATIONS ARE NOT NWS STATIONS...THUS NOT UNDER NWS
QUALITY CONTROL.  THEY ALSO DO NOT REPORT WEATHER SUCH
AS PRECIPITATION OR FOG.

IAZ001>003-012>014-020>022-031>034-043>046-231900-
   NORTHWEST IOWA

CITY           SKY/WX    TMP DP  RH WIND       PRES   REMARKS
CARROLL *      CLOUDY    50  48  93 NW15G23   29.43S FOG
CHEROKEE *     CLOUDY    44  40  83 N24G30    29.48F
DENISON *      CLOUDY    46  41  81 NW9G18    29.45R
LE MARS *      CLOUDY    43  37  81 NW21G33   29.53F
ORANGE CITY *  CLOUDY    43  37  81 NW17G26   29.50F
SHELDON *      CLOUDY    41  39  93 NW18G28   29.49F
SIOUX CITY     CLOUDY    45  37  73 NW29G36   29.50F
6HR MIN TEMP:  45; 6HR MAX TEMP:  51;

SPENCER        CLOUDY    47  40  76 NW17G26   29.46R
6HR MIN TEMP:  46; 6HR MAX TEMP:  50;

STORM LAKE *   SUNNY     46  41  81 NW24G31   29.45F
$$

IAZ055>058-069>071-079>083-090>094-231900-
   SOUTHWEST IOWA

CITY           SKY/WX    TMP DP  RH WIND       PRES   REMARKS
ATLANTIC *     CLOUDY    54  54 100 W5        29.41F FOG
AUDUBON *      RAIN      52  46  82 NW10      29.44S
CLARINDA *     CLOUDY    54  54 100 S5        29.42F FOG
COUNCIL BLFS * CLOUDY    46  43  87 N16G28    29.44F
CRESTON *      CLOUDY    54  54 100 S8        29.41F FOG
HARLAN  *      CLOUDY    48  48 100 NW15G23   29.48S
LAMONI         CLOUDY    51  51 100 S7        29.42F FOG
6HR MIN TEMP:  50; 6HR MAX TEMP:  51; 6HR PCP:  0.11;

RED OAK *      CLOUDY    54  54 100 CALM      29.41F FOG
SHENANDOAH *   CLOUDY    55  55 100 W6        29.42F FOG
$$

IAZ047>049-059>061-072>074-084-231900-
   CENTRAL IOWA

CITY           SKY/WX    TMP DP  RH WIND       PRES   REMARKS
AMES           CLOUDY    52  50  93 S5        29.43F FOG
6HR MIN TEMP:  50; 6HR MAX TEMP:  52; 6HR PCP:  0.05;

ANKENY *       CLOUDY    52  52 100 CALM      29.42F FOG
CHARITON *     CLOUDY    52  52 100 S8        29.42F FOG
DES MOINES     LGT RAIN  53  51  93 CALM      29.42F FOG
6HR MIN TEMP:  53; 6HR MAX TEMP:  53; 6HR PCP:  0.02;

GRINNELL*      RAIN      50  50 100 SE6       29.44F
KNOXVILLE *    FOG       52  50  93 SE6       29.41F VSB 1
MARSHALLTOWN   LGT RAIN  50  50 100 S7        29.43F FOG
6HR MIN TEMP:  50; 6HR MAX TEMP:  51; 6HR PCP:  0.21;

PELLA *        RAIN      51  51  99 S5        29.44F
PERRY *        CLOUDY    54  54 100 S6        29.42F FOG
$$

IAZ004>006-015-016-023>025-035-036-231900-
   NORTH CENTRAL IOWA

CITY           SKY/WX    TMP DP  RH WIND       PRES   REMARKS
ALGONA *       PTSUNNY   50  50 100 NW7       29.41F FOG
CLARION *      PTSUNNY   52  52 100 S9        29.42F FOG
ESTHERVILLE    CLOUDY    47  43  86 NW15      29.43S
6HR MIN TEMP:  47; 6HR MAX TEMP:  49;

FORT DODGE *   CLOUDY    52  48  87 S8        29.42F
MASON CITY     CLOUDY    51  50  96 S9        29.43F
6HR MIN TEMP:  49; 6HR MAX TEMP:  51; 6HR PCP: TRACE;

FOREST CITY *  LGT RAIN  50  50 100 S8        29.42F
IOWA FALLS *   CLOUDY    50  50 100 S9        29.44F FOG
$$

IAZ007>011-017>019-026>030-037>042-050>054-066-231900-
   NORTHEAST IOWA

CITY           SKY/WX    TMP DP  RH WIND       PRES   REMARKS
CEDAR RAPIDS   RAIN      50  50 100 SE8       29.46F FOG
6HR MIN TEMP:  49; 6HR MAX TEMP:  50; 6HR PCP:  0.62;

CHARLES CITY * FOG       50  50 100 S12       29.44F VSB 1/4
CLINTON *      CLOUDY    48  46  93 SE8       29.55F
DECORAH *      CLOUDY    48  48 100 S9        29.45F FOG
DUBUQUE        RAIN      48  48 100 S9        29.51F FOG
6HR MIN TEMP:  48; 6HR MAX TEMP:  49; 6HR PCP:  0.38;

MONTICELLO *   LGT RAIN  50  50 100 SE7       29.48F
OELWEIN *      LGT RAIN  50  50 100 S10       29.46F
WATERLOO       LGT RAIN  50  50 100 S8        29.45F
6HR MIN TEMP:  50; 6HR MAX TEMP:  51; 6HR PCP:  0.07;

$$

IAZ064-065-067-068-078-231900-
   EAST CENTRAL IOWA

CITY           SKY/WX    TMP DP  RH WIND       PRES   REMARKS
DAVENPORT      LGT RAIN  50  48  93 SE13      29.50F FOG
6HR MIN TEMP:  49; 6HR MAX TEMP:  50; 6HR PCP:  0.74;

IOWA CITY      RAIN      50  50 100 SE7       29.48F FOG
6HR MIN TEMP:  49; 6HR MAX TEMP:  50; 6HR PCP:  0.51;

MT. PLEASANT * RAIN      50  50 100 S12       29.47F
MUSCATINE *    LGT RAIN  52  50  93 SE9       29.48F
QUAD CITIES    RAIN      51  48  89 SE9       29.50F FOG
6HR MIN TEMP:  50; 6HR MAX TEMP:  51; 6HR PCP:  0.45;

$$

IAZ062-063-075>077-085>089-095>099-231900-
   SOUTHEAST IOWA

CITY           SKY/WX    TMP DP  RH WIND       PRES   REMARKS
BURLINGTON     RAIN      51  51 100 S8        29.47F FOG
6HR MIN TEMP:  50; 6HR MAX TEMP:  51; 6HR PCP:  0.49;

FAIRFIELD *    LGT RAIN  52  50  93 S10       29.45F
FORT MADISON * HVY RAIN  54  54 100 S7        29.48F
KEOKUK *       LGT RAIN  52  52 100 SE9G15    29.46F
OSKALOOSA *    RAIN      50  49  97 S7        29.44F
CENTERVILLE *  LGT RAIN  54  54 100 S7        29.44F
OTTUMWA        RAIN      52  51  97 S8        29.43F FOG
6HR MIN TEMP:  50; 6HR MAX TEMP:  52; 6HR PCP:  0.55;

WASHINGTON *   LGT RAIN  52  52 100 S9        29.46F
$$

ABBREVIATIONS USED IN REMARKS
   TC - TEMPERATURES IN CELSIUS
  WCI - WIND CHILL INDEX
   HX - HEAT INDEX
  VSB - VISIBILITY
$$




USA.gov is the U.S. government's official web portal to all federal, state and local government web resources and services.